Location: Austin
(30.3000°N, 97.7500°W)
Time: 04:03:56
(UTC-05:00)

Okean 3 - Pass Details

Date: 18 March 2023
Orbit: 570 x 594 km, 82.5° (Epoch: 01 April)

Event Time Altitude Azimuth Distance (km) Brightness Sun altitude
Rises 21:20:02 0° 356° (N) 2,799 7.1 -22.0°
Reaches altitude 10° 21:22:14 10° 358° (N) 1,900 6.2 -22.5°
Enters shadow 21:25:51 63° 22° (NNE) 654 3.5 -23.2°
